GFSSGP_925_temp_132.txt.gz
Temp
24 24 23 23 23 23 28 29 30 29 28 29 30 29 26 26 26 22 22 21 21 21 21 21 21 21 20 21 21 22 22 21 21 21 21 21 21 21 21 21 21 21 21 21 21 21 21 21 21
24 23 23 22 24 25 27 28 28 28 28 28 28 27 25 24 23 21 20 21 22 21 21 21 21 21 21 21 21 21 21 21 21 21 21 21 21 21 21 21 21 21 21 21 21 21 21 22 22
24 24 23 22 23 25 25 28 29 29 29 28 27 27 25 22 22 21 21 22 21 21 21 21 22 21 21 21 21 22 21 21 21 22 21 21 21 21 21 21 21 21 21 22 22 22 22 22 22
24 24 23 24 26 29 27 29 30 29 28 29 28 26 26 25 24 23 22 21 21 21 21 21 21 20 21 20 21 22 21 21 21 21 21 21 21 21 21 21 21 21 22 22 22 22 23 23 23
24 22 24 25 28 28 27 29 31 28 28 28 27 25 24 25 24 22 21 22 21 21 21 21 21 21 21 21 21 21 21 21 21 21 21 21 21 21 21 21 21 21 21 22 23 23 23 23 23
23 22 25 27 28 27 26 25 28 28 28 27 26 25 24 24 22 22 22 22 22 21 21 21 21 21 22 21 21 21 21 21 21 21 21 21 22 21 22 21 21 21 21 23 24 24 24 24 24
23 23 26 29 28 27 27 27 29 28 28 28 27 24 22 23 23 22 22 22 22 21 21 21 21 21 21 22 22 21 22 21 21 21 22 22 23 23 22 21 21 21 22 23 23 24 24 25 24
22 23 24 28 28 27 29 29 29 28 28 28 27 24 22 22 22 22 22 22 22 21 21 21 21 22 21 21 22 22 21 21 21 21 22 23 23 22 21 22 21 21 22 23 24 24 25 25 25
25 23 24 25 26 26 28 30 30 30 29 30 29 26 25 23 23 23 22 21 21 21 22 22 21 22 22 22 21 21 22 21 21 22 22 23 22 22 22 23 23 23 23 24 24 25 24 24 25
23 22 23 23 23 26 29 29 30 29 29 28 27 26 26 24 23 23 21 20 21 21 21 22 22 22 23 22 22 22 22 23 23 23 23 23 23 23 24 24 23 23 24 24 24 25 25 25 25
22 22 23 23 23 24 25 28 29 27 25 26 25 26 26 25 25 23 22 22 21 22 22 22 22 23 23 23 23 23 23 23 23 23 23 24 24 23 24 24 24 24 24 23 24 25 25 25 26
23 22 24 25 23 24 24 29 28 28 28 27 27 27 26 25 25 24 23 23 22 22 22 22 22 22 23 23 23 23 23 23 23 23 23 24 24 24 24 25 25 25 25 25 25 26 26 26 26
24 24 25 25 25 24 27 27 29 29 30 28 28 27 26 26 25 25 24 24 24 23 24 23 23 23 24 23 23 23 23 23 24 24 24 24 24 25 25 25 25 25 26 26 27 27 27 27 27
26 26 25 25 26 25 28 27 28 29 30 29 28 27 27 26 25 25 24 23 24 24 24 24 24 24 24 24 24 24 23 24 25 25 25 24 24 25 25 24 25 26 26 26 26 27 27 27 28
26 24 24 24 24 25 28 27 26 27 30 29 29 27 27 27 26 25 24 24 23 24 25 23 24 24 24 24 25 24 24 25 25 25 25 24 24 25 25 25 25 25 26 27 27 27 27 28 28
27 25 23 24 26 25 27 25 26 26 29 28 28 28 28 27 27 25 24 24 25 24 24 24 25 25 25 25 25 25 25 25 25 26 25 24 25 25 25 25 26 26 26 27 27 27 28 27 27
25 23 23 25 27 26 26 25 26 26 29 29 28 28 28 26 26 25 25 25 25 25 24 24 25 25 25 25 25 25 25 25 25 25 25 26 26 25 25 26 26 26 27 27 27 27 27 28 27
24 23 23 24 25 25 24 25 26 25 26 26 26 27 28 27 26 26 25 24 25 25 25 25 25 24 25 25 25 25 25 24 25 25 25 25 25 25 25 26 26 26 26 27 27 27 28 28 28
26 26 27 22 23 24 25 24 26 25 26 26 25 27 27 27 27 26 25 24 24 24 25 25 25 25 25 25 25 25 25 25 25 25 25 25 25 25 26 26 26 26 27 26 27 27 27 27 28
29 27 24 22 22 23 23 24 25 26 26 25 24 26 26 24 25 25 25 24 24 25 25 25 26 26 25 25 25 25 26 26 25 25 25 25 25 25 25 25 25 26 26 26 26 26 26 24 27
28 26 25 25 23 23 24 23 24 26 26 24 23 23 23 24 25 25 25 25 24 24 25 25 25 25 25 25 24 25 25 25 25 25 25 25 25 25 25 25 25 26 26 26 26 26 26 24 25
26 28 27 24 23 23 22 23 23 25 24 25 24 22 22 22 25 23 25 24 24 24 25 25 25 25 25 24 24 25 25 24 25 25 25 25 25 25 25 25 25 25 25 25 26 26 25 26 24
27 28 26 25 21 22 22 22 21 23 24 25 25 24 22 22 25 24 24 24 24 24 24 25 25 25 25 24 24 24 25 25 25 25 25 25 25 25 25 25 25 25 25 25 26 26 26 25 25
29 26 25 23 21 22 23 23 22 22 24 26 26 24 24 22 23 23 24 25 24 23 23 24 24 24 25 24 24 24 25 25 25 25 25 25 25 25 25 25 25 25 25 25 25 25 25 24 25
27 25 24 23 22 24 23 23 25 25 27 26 26 25 25 24 23 23 22 23 24 24 24 24 24 24 24 24 24 24 24 25 25 25 25 25 25 25 25 25 25 25 25 25 25 25 25 26 25
27 26 24 23 23 25 23 25 27 25 28 26 26 26 24 24 24 23 24 23 24 24 24 24 24 24 24 24 24 24 24 24 25 25 25 25 25 25 25 25 25 25 25 25 25 25 25 25 25
29 26 28 25 25 26 24 24 25 26 24 24 24 25 24 25 23 23 24 25 23 24 24 24 24 24 23 23 24 24 24 24 24 25 25 25 25 25 25 25 25 25 25 25 25 25 25 25 25
30 29 27 22 26 26 27 25 24 24 24 24 24 23 24 24 24 23 23 23 24 24 25 25 24 24 24 24 24 24 24 24 24 24 24 24 25 26 25 25 25 25 25 25 25 25 25 25 25
28 27 26 23 23 25 26 26 27 26 25 24 23 23 23 25 25 24 24 23 24 25 25 24 25 24 24 24 24 24 24 24 24 24 24 25 25 25 25 25 25 25 25 25 25 25 25 25 25
27 28 24 23 26 23 24 25 23 22 22 23 23 24 23 23 25 23 24 23 22 23 22 23 24 23 23 23 24 24 24 24 24 24 25 24 25 25 25 25 25 25 25 25 25 25 25 25 25

GFSSGP_925_temp_138.txt.gz
Temp
23 22 21 21 23 22 24 26 27 26 26 27 26 25 23 21 23 22 20 21 21 21 21 21 21 21 21 20 21 21 20 20 21 21 21 21 21 21 20 21 21 21 21 21 21 21 21 21 20
23 22 22 21 22 23 24 26 26 25 26 25 25 24 23 21 21 19 20 20 21 21 21 22 21 21 21 21 21 21 21 21 21 21 21 21 21 21 21 20 20 21 21 21 21 21 21 21 21
23 23 22 21 21 23 24 25 26 26 27 26 24 24 23 21 20 20 21 21 21 20 21 22 22 21 22 21 20 20 20 21 21 21 21 21 21 21 21 21 20 20 21 21 21 22 22 22 22
23 22 22 23 24 26 26 25 27 26 26 25 24 23 22 22 21 21 21 21 21 21 21 21 21 22 21 22 21 21 21 21 21 22 22 21 21 21 20 20 21 20 20 21 22 22 22 22 22
23 21 23 24 25 26 26 27 27 26 25 25 24 22 21 21 21 21 21 21 21 21 21 21 21 21 21 22 22 21 21 21 21 21 21 21 21 21 21 21 21 20 21 21 22 22 22 22 22
22 21 24 24 26 26 26 27 26 24 24 24 23 22 21 20 20 20 21 21 22 21 21 21 21 21 21 20 21 22 22 22 21 22 21 21 21 21 21 21 21 21 21 22 23 23 23 22 22
23 23 24 26 25 26 27 26 26 25 24 24 24 22 21 20 20 20 21 21 21 21 21 21 21 21 22 21 21 22 23 22 22 22 21 21 21 21 21 20 21 21 22 23 23 23 23 23 22
23 23 25 26 26 26 27 27 26 26 24 25 24 21 21 20 20 20 20 20 20 21 21 21 22 22 21 22 22 22 23 22 22 21 21 21 21 21 22 21 21 21 21 23 23 23 23 23 23
25 23 25 24 26 26 27 26 27 26 25 26 26 24 22 20 20 20 20 20 20 20 21 21 22 22 21 21 21 22 22 22 21 21 22 22 22 22 22 22 22 22 22 23 23 24 24 24 24
24 23 24 23 23 24 27 27 26 26 25 24 22 21 20 20 20 19 19 19 19 20 21 21 21 21 21 21 21 21 21 22 22 22 22 22 22 22 23 23 23 23 24 24 24 24 25 25 24
24 24 23 23 24 23 25 27 28 26 24 24 22 21 21 20 20 19 19 19 19 20 20 21 22 22 22 22 21 22 22 22 22 22 22 22 23 24 23 23 24 24 24 25 25 25 25 25 25
25 23 24 23 24 25 25 24 26 26 25 25 23 22 21 21 20 20 19 20 20 20 21 21 21 21 21 22 22 22 22 23 22 23 23 23 23 23 24 24 25 25 25 26 26 26 26 25 26
24 24 24 25 24 24 24 25 27 26 25 24 23 23 22 21 21 20 20 20 21 21 21 21 21 21 21 22 22 22 23 23 23 23 23 23 24 24 24 24 25 25 26 26 26 26 26 26 26
25 26 25 25 25 24 23 24 26 24 25 24 23 23 22 22 21 21 21 20 21 21 21 21 22 22 22 22 22 22 23 23 23 24 23 24 24 24 24 25 25 26 26 26 26 26 26 26 26
25 24 25 24 24 23 23 24 24 23 25 24 23 23 23 23 22 22 21 21 21 22 22 22 22 22 23 22 22 23 23 23 24 23 23 24 24 24 24 25 25 26 27 27 27 26 26 26 26
23 24 24 23 24 23 23 24 23 25 25 24 24 23 24 23 23 22 22 22 22 22 22 22 22 23 23 23 23 23 23 24 24 23 23 24 24 24 25 25 25 26 26 26 26 26 26 26 26
21 23 23 24 24 23 22 23 24 25 26 25 24 24 24 23 23 23 22 23 23 23 23 23 23 23 23 23 23 23 24 23 23 23 23 24 24 24 25 25 25 26 26 26 26 27 27 26 26
22 21 22 22 22 21 21 23 24 24 26 25 24 24 24 23 23 23 23 23 23 23 23 23 23 23 23 23 23 23 23 24 23 23 24 24 24 24 25 25 25 26 26 26 26 27 27 26 26
23 22 22 21 20 21 21 22 23 21 23 24 24 25 24 23 24 24 23 23 23 23 23 22 23 23 23 23 23 23 24 24 24 23 23 24 24 24 24 25 25 25 26 26 25 26 26 24 25
25 25 23 21 20 21 21 21 22 21 23 24 24 24 24 23 22 22 23 23 23 23 23 23 23 24 24 24 24 24 24 24 24 24 24 24 24 24 24 25 25 25 26 25 25 26 25 24 24
26 26 23 24 21 21 21 22 21 21 23 24 23 24 24 23 22 22 22 22 23 23 23 23 23 23 24 24 24 24 24 24 24 24 24 24 24 24 24 25 25 25 25 25 25 24 26 25 24
26 25 25 24 22 23 23 23 21 21 23 23 22 23 22 22 23 22 22 22 23 23 24 23 23 23 24 24 24 25 25 24 24 24 24 24 24 24 24 24 24 25 25 25 25 25 25 25 25
24 24 22 22 21 22 22 22 23 21 21 23 23 24 23 23 23 22 23 23 23 23 24 23 23 23 24 24 24 24 24 24 25 24 24 24 24 24 24 24 24 25 25 25 25 25 25 25 25
25 24 22 20 21 22 23 23 23 21 23 24 24 24 23 22 23 23 23 23 23 23 24 23 23 23 23 23 25 25 25 24 24 24 24 24 24 24 24 24 24 24 25 24 25 25 25 25 25
24 23 23 22 21 22 20 23 24 23 25 25 25 24 23 22 22 22 21 21 22 23 23 23 23 24 24 23 23 24 25 24 24 24 25 24 24 24 24 24 24 24 24 24 25 24 25 25 25
24 23 23 24 22 23 22 23 24 25 25 26 26 24 23 22 21 22 21 21 21 22 23 23 24 24 24 23 23 24 24 24 24 24 24 24 24 24 24 24 24 24 24 24 24 24 24 25 25
24 23 23 22 22 22 22 23 25 25 25 24 25 24 23 23 23 23 22 22 21 22 23 24 24 24 24 24 23 23 23 24 24 24 24 24 24 24 24 24 24 24 24 24 24 24 24 24 24
24 22 24 19 23 23 23 23 25 23 24 23 24 24 24 24 23 24 23 23 22 23 24 24 24 24 24 24 23 23 23 24 24 24 24 24 25 25 24 24 24 24 24 24 24 24 24 24 24
24 23 20 22 23 23 24 24 22 22 23 22 23 22 23 23 23 24 24 23 23 23 22 23 24 24 24 24 24 23 24 23 23 23 24 24 24 24 24 25 25 24 24 24 24 24 24 24 24
24 24 22 21 24 21 23 24 20 21 21 23 22 22 22 22 23 23 23 23 22 22 22 22 22 23 24 24 24 24 23 23 23 23 23 24 24 24 24 25 25 25 24 24 24 24 24 24 24

GFSSGP_925_temp_141.txt.gz
Temp
22 21 21 22 27 29 28 28 29 28 27 28 28 27 26 24 25 25 20 21 21 21 20 20 20 20 20 21 21 20 20 20 20 20 20 20 20 20 20 21 21 21 20 21 21 21 21 21 21
22 21 22 23 28 29 28 28 28 28 28 28 27 26 25 24 23 22 22 21 21 21 21 21 20 20 20 20 19 20 20 21 21 20 20 21 21 21 20 20 21 21 20 21 21 21 21 20 20
23 22 24 25 26 29 29 28 27 27 28 28 26 26 25 23 22 22 21 21 21 21 21 21 21 21 21 20 21 21 21 20 20 21 20 21 21 21 21 21 21 20 21 21 22 21 21 21 22
23 23 25 27 27 28 28 28 28 28 28 27 27 25 24 23 23 22 21 21 21 21 22 21 21 20 20 20 21 20 20 20 21 20 21 21 21 20 21 21 20 21 22 22 22 21 22 22 22
23 24 27 27 27 28 28 29 29 28 27 26 26 24 23 22 21 21 21 21 22 21 22 21 21 21 20 19 20 21 21 20 20 20 21 21 21 21 21 21 21 21 21 21 22 22 22 22 23
25 24 28 28 28 28 28 28 28 27 26 26 26 25 22 21 22 21 21 21 22 22 21 22 22 21 21 22 21 20 20 20 21 21 21 21 21 21 21 21 21 21 21 22 22 22 23 23 22
26 25 27 28 28 27 28 29 28 27 26 26 26 25 22 22 22 21 21 21 21 21 21 21 21 21 22 22 20 21 21 22 21 21 21 21 21 21 21 21 21 21 21 21 22 23 23 23 23
25 25 27 27 28 27 28 28 27 28 26 27 27 24 22 22 21 21 21 21 21 21 21 21 21 21 21 21 21 21 21 21 21 21 21 21 21 21 21 21 21 21 21 22 23 24 24 23 23
26 27 26 27 28 27 28 27 28 28 27 27 26 26 25 22 21 21 21 20 21 21 20 21 21 21 21 21 21 22 21 21 21 21 21 22 21 21 22 22 22 23 23 24 24 24 24 24 24
26 24 25 25 26 27 28 28 27 27 27 25 24 24 22 21 22 22 22 21 21 21 20 20 21 21 21 21 21 21 22 22 22 22 22 22 22 22 22 23 23 24 24 24 25 24 24 24 24
25 24 24 25 25 26 28 28 28 28 27 26 25 24 23 22 22 23 22 22 22 21 21 20 20 21 21 21 21 21 21 22 22 22 22 23 23 23 24 24 24 24 25 24 24 24 24 24 24
25 24 24 24 25 27 27 27 28 28 28 28 26 25 24 24 23 24 23 22 21 21 21 20 21 21 21 22 21 22 22 22 22 23 23 24 24 24 24 24 25 25 26 25 25 24 26 26 26
25 24 25 24 24 26 26 27 28 27 27 27 25 24 24 24 24 23 23 22 22 21 21 20 20 21 22 22 22 22 22 22 22 23 23 24 24 24 24 25 25 25 26 26 26 26 26 26 27
26 27 25 26 24 24 27 26 28 26 26 26 25 25 25 25 24 23 23 22 22 22 21 21 20 21 22 22 22 22 23 22 23 23 23 24 24 24 25 25 25 25 26 25 26 26 26 26 26
27 26 26 25 24 23 24 24 25 26 27 26 26 26 25 25 24 24 23 23 22 22 22 21 21 21 22 22 22 23 23 23 23 23 23 24 24 24 25 25 25 25 26 26 26 26 26 25 25
26 26 25 23 23 22 24 24 25 23 26 26 26 26 25 25 25 24 23 23 22 22 21 21 22 21 22 22 22 23 23 23 23 23 24 24 24 24 25 25 25 25 26 26 25 26 26 26 26
26 26 25 22 21 22 22 23 23 22 26 25 26 26 26 26 25 24 24 23 23 22 22 21 21 21 22 22 22 23 23 23 23 23 23 24 24 24 25 25 25 26 26 26 25 24 25 25 25
27 25 24 23 22 21 21 21 23 22 24 24 26 26 26 27 26 25 24 24 23 22 22 22 22 21 22 23 22 23 23 23 23 23 23 24 24 24 25 25 25 25 25 25 25 26 26 25 25
27 27 25 23 22 23 22 21 22 22 23 24 25 26 27 27 27 25 24 24 23 22 22 22 21 22 22 21 22 22 23 22 23 23 24 24 24 24 24 25 25 25 25 26 26 26 25 24 24
28 27 25 22 22 23 23 22 22 21 21 24 24 26 27 27 26 25 24 24 24 23 22 22 22 22 22 22 23 23 23 23 23 23 24 24 24 24 24 25 25 25 24 25 25 26 24 23 24
29 28 25 26 23 23 22 22 22 21 21 22 25 26 28 27 27 27 25 24 24 23 23 22 22 23 22 23 23 23 24 23 23 23 24 24 24 24 24 25 25 25 24 24 26 25 25 25 23
28 27 28 25 24 24 23 24 22 21 21 23 25 25 27 27 27 27 26 25 24 24 23 22 22 23 23 23 23 24 24 24 24 24 23 24 24 24 24 24 24 25 24 25 25 25 25 24 24
27 27 27 27 25 24 23 24 24 22 22 23 24 25 27 28 28 28 27 26 25 24 23 23 22 23 22 23 23 24 24 24 23 23 24 24 24 24 24 24 24 24 24 25 25 25 25 25 23
27 28 26 26 25 25 25 25 25 23 23 25 25 25 25 28 28 28 26 26 25 24 24 23 22 23 22 22 23 24 25 24 23 23 23 23 23 23 24 24 24 24 24 24 25 25 25 24 24
28 30 27 27 26 27 24 24 27 27 26 26 27 26 25 27 28 28 26 23 25 24 24 24 22 22 22 22 23 24 24 25 24 24 24 24 24 24 24 24 24 24 24 24 24 24 24 25 24
29 30 29 27 27 27 24 25 28 27 28 28 28 26 24 24 26 27 26 25 25 25 24 23 23 22 21 22 23 23 24 23 24 24 24 24 24 24 24 24 24 24 24 24 24 24 24 24 24
28 28 28 27 26 27 28 27 27 27 27 27 27 28 24 26 26 27 26 26 25 25 24 23 23 22 22 22 22 23 24 23 23 24 24 24 25 24 24 24 24 24 24 24 24 23 24 24 24
29 28 27 27 26 26 28 27 26 25 26 27 27 27 25 24 24 25 26 26 25 25 24 24 23 23 22 22 22 22 22 23 23 23 24 24 24 25 25 24 24 24 24 24 24 23 23 24 24
27 28 27 29 28 27 28 27 24 23 24 26 27 28 26 25 24 25 25 23 23 24 23 24 23 23 22 22 22 22 22 22 23 22 23 24 24 24 24 24 24 24 24 24 24 24 23 24 23
28 29 28 30 26 26 27 26 23 22 23 24 25 26 26 26 26 26 24 23 23 23 22 23 23 23 23 23 22 22 22 23 22 22 24 24 23 24 24 24 24 25 24 22 24 23 24 23 23

GFSSGP_925_temp_144.txt.gz
Temp
23 24 25 26 30 34 32 32 33 32 31 32 31 31 29 28 28 26 25 25 24 23 22 21 20 20 20 21 20 20 20 21 21 21 21 20 20 21 21 21 21 21 21 21 21 21 21 21 21
26 25 26 29 32 33 32 32 32 32 32 31 30 30 30 27 28 26 25 24 24 24 23 20 20 20 20 20 20 20 20 21 22 20 21 20 20 21 21 21 21 21 21 21 21 21 21 21 21
24 25 29 31 33 33 32 32 32 31 31 31 30 30 29 27 27 26 25 24 25 24 23 20 20 20 20 20 20 21 21 20 21 20 21 21 21 21 21 21 21 21 21 21 21 21 21 21 21
26 26 30 32 32 32 32 32 32 31 31 30 30 28 28 27 27 26 25 25 25 25 23 21 21 21 21 21 20 20 20 21 21 21 21 21 21 21 21 21 21 21 21 21 21 22 22 22 22
26 28 32 32 32 32 33 32 32 32 31 30 31 28 27 26 25 25 25 26 26 25 23 21 21 22 21 21 21 20 21 21 21 21 20 21 21 21 21 21 21 21 21 21 22 22 23 23 22
29 27 32 32 31 31 32 32 32 31 30 30 30 28 26 26 26 26 26 26 26 26 24 22 21 22 21 21 21 21 21 21 21 20 21 21 21 21 21 21 21 21 21 22 23 23 23 23 22
28 26 32 33 31 31 31 32 31 31 30 30 31 29 26 27 26 25 26 26 26 25 24 23 21 21 20 20 20 20 21 20 20 21 21 21 21 21 21 21 21 21 22 23 23 23 23 23 23
30 26 31 33 31 30 31 31 31 31 29 30 31 28 27 27 26 26 26 26 26 25 24 22 21 21 21 20 19 19 20 20 20 21 21 21 21 22 22 23 21 22 23 24 24 24 24 24 23
30 29 29 32 32 30 31 30 30 31 30 30 30 31 28 26 26 26 26 26 25 25 25 25 24 21 21 20 20 21 21 21 22 22 22 23 24 24 24 23 23 24 24 24 24 24 24 24 25
31 27 30 29 31 31 31 31 30 30 30 28 30 29 27 26 26 27 27 27 26 25 25 25 26 24 23 22 21 21 22 22 22 22 22 24 24 24 24 23 24 24 25 25 25 25 25 25 28
29 25 27 29 29 31 31 31 31 31 30 30 29 29 28 27 27 28 27 27 26 26 25 24 24 23 25 24 23 24 24 24 23 22 24 23 25 25 26 26 26 26 25 27 27 27 27 27 28
27 24 24 27 28 29 31 31 31 31 31 32 30 29 28 29 28 28 28 27 26 25 25 24 23 23 24 24 25 24 24 24 25 24 23 24 26 25 25 26 26 26 27 26 27 27 26 27 27
26 24 23 24 25 28 28 29 30 30 31 31 30 29 29 29 28 28 28 27 26 25 24 24 23 23 23 24 24 24 25 25 24 24 23 24 26 25 26 25 26 27 27 27 27 27 27 27 28
27 27 25 27 24 24 28 27 29 29 31 30 29 29 30 29 29 28 28 27 26 26 25 24 24 23 23 23 23 24 24 24 25 25 24 24 25 25 26 26 27 27 27 27 27 27 28 28 28
29 28 28 27 24 23 26 26 27 29 31 30 30 30 30 29 28 28 27 27 26 26 25 25 24 23 23 23 24 25 25 25 25 25 23 23 24 24 25 26 27 27 26 26 26 26 27 28 29
29 29 27 25 26 21 23 24 24 27 30 30 30 30 29 29 28 28 27 27 26 27 25 25 25 24 23 23 23 25 24 25 25 25 25 24 23 23 25 27 26 26 27 27 28 28 28 29 29
31 28 28 24 22 22 21 22 24 22 25 30 30 30 30 29 29 28 27 27 26 26 25 25 25 24 24 23 23 23 23 25 25 25 25 24 24 24 25 26 25 26 27 27 28 28 28 28 29
31 31 29 27 24 21 21 22 24 22 22 28 30 31 30 30 30 28 28 27 27 26 25 25 24 24 23 23 23 24 25 25 25 25 25 24 24 24 25 25 25 27 28 28 27 26 27 28 27
32 32 30 28 26 25 23 22 23 21 21 24 29 31 31 31 30 29 28 27 27 26 25 24 24 23 23 24 25 25 25 25 25 25 24 24 24 24 24 26 26 27 27 26 26 27 27 28 27
32 32 30 27 26 27 26 24 23 22 22 23 28 30 31 30 31 29 28 28 27 26 25 24 24 23 23 25 25 26 25 25 26 25 24 24 24 24 25 24 26 25 27 26 26 26 28 28 26
32 32 31 30 27 27 26 27 24 23 22 23 26 29 30 29 31 30 29 28 27 26 26 25 24 23 23 25 24 23 24 24 25 25 25 25 24 24 24 24 24 25 26 27 26 26 25 28 27
32 32 31 29 29 27 27 27 26 24 22 23 23 26 30 31 31 31 30 29 28 27 26 25 24 23 23 23 25 25 26 27 27 26 26 25 24 24 25 25 25 24 26 25 26 26 25 25 28
32 32 31 30 31 29 28 25 27 26 22 25 25 26 29 32 32 32 31 30 29 28 27 26 24 23 24 23 24 25 25 26 26 26 25 25 24 24 25 25 25 25 26 25 25 25 24 26 27
32 32 31 32 32 31 31 28 27 26 27 24 26 25 29 32 32 32 31 30 29 28 27 26 24 23 23 23 23 24 26 26 26 26 26 26 26 26 24 25 24 24 24 25 25 24 25 24 25
32 32 32 31 30 31 31 29 30 29 29 29 28 27 28 31 32 32 32 30 29 28 27 27 25 24 23 23 24 24 24 25 25 25 26 27 27 27 26 24 24 25 24 24 24 25 25 25 25
31 33 32 30 31 30 31 30 30 29 31 31 29 27 28 29 31 32 31 29 25 28 27 27 25 24 24 24 24 24 24 25 25 25 27 27 27 27 26 25 25 24 24 24 24 25 26 26 26
32 31 34 32 33 32 33 31 29 30 30 30 30 27 27 29 31 31 31 30 27 28 27 27 26 25 24 24 24 23 24 24 26 26 25 26 26 26 25 25 25 25 25 24 24 25 25 25 25
32 34 31 32 29 30 32 31 28 27 27 29 31 29 29 24 27 31 31 30 30 29 28 27 26 25 25 25 24 24 24 24 24 24 24 25 25 24 25 25 25 24 24 24 24 26 25 25 26
31 31 32 30 33 30 30 29 28 25 26 28 28 31 27 25 28 30 30 29 29 28 28 27 26 26 25 25 25 24 24 24 24 24 24 24 24 24 24 24 24 25 25 24 24 24 25 25 25
33 32 33 31 29 31 31 29 25 25 25 26 29 31 30 24 26 29 27 28 27 26 26 27 26 26 26 26 25 24 24 24 24 24 24 24 24 24 23 24 24 24 25 24 24 24 26 25 25

GFSSGP_925_temp_147.txt.gz
Temp
24 25 28 29 28 29 31 33 35 34 34 34 34 33 31 30 30 25 25 25 24 24 22 21 20 20 20 20 20 21 21 21 22 21 21 21 21 21 21 21 21 21 21 22 21 21 21 21 21
28 29 29 31 27 28 34 35 33 33 34 34 33 32 31 29 30 27 25 24 24 24 23 21 20 20 21 21 20 20 20 20 22 22 21 21 21 21 21 21 21 21 21 21 21 21 21 21 21
27 28 32 33 29 33 32 34 34 34 34 33 32 32 32 29 28 26 25 24 24 23 22 20 20 19 20 20 21 21 20 21 21 22 21 20 21 20 21 21 21 21 21 21 21 21 21 21 21
30 30 32 29 34 35 34 34 34 34 33 33 33 30 31 29 28 27 26 26 25 24 22 20 20 19 19 19 20 20 21 21 21 21 21 21 21 21 21 21 21 21 21 21 21 21 21 21 21
30 29 30 33 33 35 35 35 35 34 34 33 33 30 29 29 29 28 27 26 26 24 21 20 21 20 20 21 21 20 20 21 20 21 21 20 21 21 21 21 21 21 21 22 22 21 22 22 22
31 31 30 31 33 34 34 34 35 34 33 33 32 30 29 29 29 28 27 27 27 25 23 21 22 21 20 20 20 21 21 21 20 21 21 21 21 21 21 21 21 21 22 23 23 23 23 23 23
27 30 26 32 33 33 33 35 34 34 33 33 33 29 30 30 29 29 28 26 24 25 24 22 22 21 22 21 21 22 22 22 21 21 21 21 21 21 21 21 22 22 23 23 24 23 23 23 23
33 30 33 34 33 32 33 33 34 34 32 34 33 30 29 30 29 30 29 28 25 25 24 23 22 20 21 21 22 22 22 21 21 21 22 23 23 23 24 24 22 23 23 24 24 24 24 24 24
34 31 27 33 32 32 33 32 33 33 33 33 34 32 31 29 30 30 29 27 26 25 25 23 24 20 21 22 22 22 21 21 22 23 23 23 26 25 24 24 24 24 24 25 25 25 25 25 25
31 28 29 32 28 33 33 33 33 33 32 32 33 32 30 30 30 30 29 28 26 26 24 25 25 21 20 20 21 22 21 23 24 24 25 26 26 26 26 25 25 25 26 26 26 26 27 26 26
30 27 30 32 32 34 33 33 34 34 31 33 31 31 31 30 31 30 30 28 27 22 26 21 22 21 21 23 21 22 23 23 24 24 25 26 26 26 26 26 26 26 27 25 27 27 28 29 30
29 25 28 31 32 33 32 34 33 33 31 34 33 32 31 31 32 31 30 29 28 26 26 25 26 20 23 24 24 24 25 25 26 25 25 26 27 27 28 29 28 28 29 28 29 28 28 29 30
29 25 23 27 26 30 30 32 32 33 34 33 33 32 32 32 32 31 31 30 29 28 27 25 24 25 25 26 27 27 26 27 27 26 25 27 28 27 28 24 28 29 29 29 29 28 29 29 30
29 27 25 24 27 26 27 30 31 33 33 32 32 32 32 33 32 31 31 29 29 28 27 26 25 25 25 25 25 26 27 26 27 27 25 25 27 27 28 25 29 29 29 29 29 28 29 30 30
30 28 29 26 25 23 24 26 30 32 33 32 32 32 32 32 32 31 30 30 29 28 27 26 26 25 25 25 25 27 27 27 27 26 25 25 26 26 27 28 29 29 28 28 28 28 29 30 31
31 27 26 26 27 22 25 23 25 27 30 32 31 32 32 32 32 30 30 30 29 29 27 26 28 26 25 24 26 27 27 27 27 27 26 25 25 25 27 28 28 28 29 30 30 30 30 31 31
31 29 26 27 28 24 23 22 22 27 29 31 31 32 32 31 32 31 30 30 29 28 27 27 27 27 26 24 26 26 25 27 27 27 27 25 26 25 27 28 27 24 29 30 30 30 30 30 31
30 23 31 30 27 27 24 22 21 26 28 29 31 31 32 31 32 31 30 30 29 27 27 27 27 26 25 25 26 26 26 27 27 27 26 26 26 25 26 27 27 25 26 29 28 28 29 29 29
35 33 30 30 28 28 26 23 22 23 23 25 26 31 31 30 32 31 31 30 29 28 27 26 26 25 25 26 27 26 26 27 27 27 25 25 26 26 26 28 28 28 28 27 28 29 29 30 29
35 33 27 30 30 29 28 25 23 22 22 24 25 26 27 31 32 31 31 30 30 28 27 26 26 24 24 27 27 27 27 27 27 27 26 26 26 26 26 26 28 27 27 27 27 27 29 30 28
35 35 32 30 30 30 30 27 23 23 23 22 24 28 30 31 30 31 31 31 30 29 28 26 26 24 25 26 26 25 26 26 27 26 26 26 26 26 26 25 26 27 27 27 27 26 27 29 29
34 36 34 33 31 29 31 28 28 26 24 24 23 27 26 27 29 32 31 31 30 29 28 27 26 25 25 25 25 25 27 28 28 28 27 26 26 26 26 26 26 26 27 27 27 26 27 28 29
35 34 35 33 34 33 30 30 30 29 27 25 23 28 27 29 32 26 31 31 31 30 28 27 26 25 26 25 24 25 26 26 28 28 26 26 25 26 26 26 26 26 27 26 26 26 26 28 28
35 34 34 35 35 34 32 32 31 30 30 28 25 27 28 26 32 27 26 30 30 30 29 28 26 25 25 25 24 24 26 26 28 28 27 28 27 26 26 26 26 26 25 26 26 26 26 26 26
34 34 33 33 34 33 34 33 32 32 31 28 27 27 29 32 31 33 29 28 30 30 29 29 27 25 25 25 25 25 25 25 26 26 27 28 28 28 25 26 25 26 25 26 25 26 26 27 26
34 35 33 29 27 33 28 32 30 31 32 28 27 26 26 30 29 25 27 29 30 30 30 29 27 26 25 25 25 25 25 26 26 26 27 28 27 28 27 26 26 26 26 26 26 26 27 27 27
34 34 35 32 34 33 34 30 32 32 31 31 30 29 25 29 30 29 31 31 31 30 30 29 27 26 26 26 25 24 25 25 27 27 26 27 27 27 27 27 26 26 26 26 25 26 27 27 26
35 33 32 31 28 28 32 28 28 30 29 31 31 29 26 29 31 29 30 32 30 30 30 29 28 26 26 26 26 25 25 25 25 26 25 26 26 26 26 26 26 26 26 26 25 26 27 26 26
34 29 30 33 31 29 30 28 30 28 28 28 29 28 26 27 31 31 29 29 30 30 30 29 29 27 26 26 26 26 26 26 25 26 26 25 25 25 25 24 25 26 26 26 26 25 25 26 26
36 34 35 34 28 29 30 28 28 29 28 28 30 28 27 24 28 30 29 28 31 31 30 30 29 28 28 27 26 26 26 26 26 26 26 26 25 25 25 25 25 25 26 26 25 25 26 26 27